FW3961 Weather Reports


Display with metric or nautical units.
time (UTC)temp
F
wind
direction
speed
MPH
gust
MPH
rain 1hr
in
rain 24hr
in
rain mn
in
humidity
%
barometer
mb
20260901044532 64 213 0.0 1.0 0.00 0.00 0.00 75 1011.1
20260901044026 64 214 0.0 1.0 0.00 0.00 0.00 75 1011.1
20260901043521 64 214 0.0 3.0 0.00 0.00 0.00 74 1011.0
20260901043015 64 205 0.0 3.0 0.00 0.00 0.00 74 1010.7
20260901043010 65 209 0.0 2.0 0.00 0.00 0.00 73 1010.7
20260901042003 65 223 1.0 3.0 0.00 0.00 0.00 73 1010.6
20260901041457 65 223 1.0 4.0 0.00 0.00 0.00 72 1010.7
20260901040950 66 279 2.0 6.0 0.00 0.00 0.00 71 1010.5
20260901040446 67 236 2.0 6.0 0.00 0.00 0.00 70 1010.3
20260901035939 67 242 2.0 8.0 0.00 0.00 0.00 69 1010.3
20260901035433 68 251 2.0 8.0 0.00 0.00 0.00 68 1010.2
20260901034927 68 229 1.0 6.0 0.00 0.00 0.00 66 1010.0
20260901034923 69 205 1.0 5.0 0.00 0.00 0.00 65 1009.9
20260901033915 69 263 1.0 4.0 0.00 0.00 0.00 64 1009.7
20260901033409 70 289 1.0 4.0 0.00 0.00 0.00 63 1009.7
20260901032902 70 302 1.0 4.0 0.00 0.00 0.00 62 1009.6
20260901032357 71 13 1.0 3.0 0.00 0.00 0.00 61 1009.4
20260901031851 71 321 1.0 6.0 0.00 0.00 0.00 60 1009.4
20260901031345 71 277 1.0 7.0 0.00 0.00 0.00 59 1009.3
20260901030838 72 302 1.0 7.0 0.00 0.00 0.00 58 1009.3
20260901030333 73 205 1.0 4.0 0.00 0.00 0.00 58 1009.4
20260901025827 73 253 1.0 4.0 0.00 0.00 0.00 57 1009.4
20260901025823 74 298 1.0 7.0 0.00 0.00 0.00 56 1009.2
20260901024814 74 285 1.0 7.0 0.00 0.00 0.00 56 1009.1
20260901024309 75 299 1.0 4.0 0.00 0.00 0.00 55 1009.2
20260901023803 76 207 1.0 4.0 0.00 0.00 0.00 55 1009.1
20260901023256 76 346 1.0 4.0 0.00 0.00 0.00 54 1009.1
20260901022751 77 223 1.0 4.0 0.00 0.00 0.00 53 1009.0
20260901022244 77 259 1.0 4.0 0.00 0.00 0.00 52 1009.0
20260901021739 78 223 1.0 6.0 0.00 0.00 0.00 52 1009.0
20260901021232 78 244 2.0 7.0 0.00 0.00 0.00 51 1008.9
20260901020727 79 269 2.0 7.0 0.00 0.00 0.00 51 1008.8
20260901020225 80 89 2.0 6.0 0.00 0.00 0.00 50 1008.9
20260901015725 80 202 2.0 7.0 0.00 0.00 0.00 49 1008.9
20260901015222 80 232 2.0 7.0 0.00 0.00 0.00 48 1008.7
20260901014724 81 186 2.0 7.0 0.00 0.00 0.00 48 1008.6
20260901014223 81 219 1.0 7.0 0.00 0.00 0.00 46 1008.6
20260901013722 82 210 0.0 3.0 0.00 0.00 0.00 44 1008.6
20260901013222 82 215 1.0 2.0 0.00 0.00 0.00 43 1008.5
20260901012721 82 215 1.0 2.0 0.00 0.00 0.00 43 1008.6
20260901012220 83 215 0.0 1.0 0.00 0.00 0.00 42 1008.5
20260901011721 83 215 0.0 2.0 0.00 0.00 0.00 41 1008.6
20260901011220 83 215 0.0 2.0 0.00 0.00 0.00 40 1008.6
20260901010721 83 215 0.0 2.0 0.00 0.00 0.00 40 1008.6
20260901010224 84 215 0.0 2.0 0.00 0.00 0.00 39 1008.7
20260901010220 83 216 1.0 2.0 0.00 0.00 0.00 40 1008.7
20260901005220 84 216 0.0 2.0 0.00 0.00 0.00 40 1008.7
20260901004721 84 215 0.0 2.0 0.00 0.00 0.00 40 1008.7
20260901004221 84 249 0.0 2.0 0.00 0.00 0.00 40 1008.7
20260901003715 84 249 0.0 1.0 0.00 0.00 0.00 40 1008.7
20260901003214 84 249 0.0 1.0 0.00 0.00 0.00 41 1008.7
20260901002717 84 249 0.0 2.0 0.00 0.00 0.00 39 1008.7
20260901002213 84 249 0.0 2.0 0.00 0.00 0.00 40 1008.8
20260901001713 85 224 1.0 2.0 0.00 0.00 0.00 40 1008.8
20260901001213 85 224 1.0 3.0 0.00 0.00 0.00 40 1008.9
20260901000712 85 200 1.0 3.0 0.00 0.00 0.00 39 1008.9
20260901000213 86 334 1.0 4.0 0.00 0.00 0.00 39 1008.8
20260831235715 86 349 1.0 4.0 0.00 0.00 0.00 38 1008.8
20260831235212 86 234 1.0 5.0 0.00 0.00 0.00 39 1008.8
20260831234713 86 309 1.0 5.0 0.00 0.00 0.00 39 1008.8
20260831234213 86 335 1.0 3.0 0.00 0.00 0.00 39 1008.8
20260831233716 86 335 1.0 3.0 0.00 0.00 0.00 39 1008.8
20260831233212 85 286 1.0 3.0 0.00 0.00 0.00 40 1008.8
20260831232712 85 275 1.0 3.0 0.00 0.00 0.00 40 1009.0
20260831232217 85 201 1.0 5.0 0.00 0.00 0.00 41 1009.0
20260831232213 85 260 1.0 3.0 0.00 0.00 0.00 40 1009.0
20260831231212 85 205 1.0 5.0 0.00 0.00 0.00 42 1009.0
20260831231055 85 313 1.0 3.0 0.00 0.00 0.00 43 1009.1
20260831230946 85 288 1.0 4.0 0.00 0.00 0.00 43 1009.1
20260831225704 85 313 1.0 4.0 0.00 0.00 0.00 44 1009.2
20260831225158 85 233 1.0 4.0 0.00 0.00 0.00 42 1009.4
20260831224652 84 333 1.0 4.0 0.00 0.00 0.00 46 1009.3
20260831224147 85 28 2.0 4.0 0.00 0.00 0.00 43 1009.3
20260831223640 85 325 2.0 4.0 0.00 0.00 0.00 44 1009.2
20260831223135 85 256 1.0 4.0 0.00 0.00 0.00 44 1009.3
20260831222631 84 192 0.0 3.0 0.00 0.00 0.00 45 1009.2
20260831222122 84 193 1.0 3.0 0.00 0.00 0.00 45 1009.3
20260831221616 83 198 1.0 3.0 0.00 0.00 0.00 44 1009.4
20260831221110 83 192 1.0 5.0 0.00 0.00 0.00 48 1009.4
20260831220604 83 211 1.0 5.0 0.00 0.00 0.00 44 1009.5
20260831220058 83 10 1.0 4.0 0.00 0.00 0.00 45 1009.5
20260831215552 83 294 1.0 4.0 0.00 0.00 0.00 44 1009.7
20260831215045 82 211 1.0 3.0 0.00 0.00 0.00 46 1009.8
20260831214539 82 332 1.0 4.0 0.00 0.00 0.00 45 1009.8
20260831214034 82 321 1.0 4.0 0.00 0.00 0.00 46 1010.0
20260831213528 82 42 1.0 3.0 0.00 0.00 0.00 45 1010.0
20260831213022 82 309 1.0 4.0 0.00 0.00 0.00 46 1010.0
20260831212515 81 269 1.0 4.0 0.00 0.00 0.00 46 1010.1
20260831212010 81 28 2.0 5.0 0.00 0.00 0.00 47 1010.1
20260831211508 81 44 1.0 4.0 0.00 0.00 0.00 46 1010.0
20260831211503 81 295 2.0 5.0 0.00 0.00 0.00 46 1010.1
20260831210452 81 167 1.0 4.0 0.00 0.00 0.00 47 1010.1
20260831205947 80 159 1.0 4.0 0.00 0.00 0.00 48 1010.2
20260831205444 79 25 1.0 4.0 0.00 0.00 0.00 49 1010.4
20260831205440 79 30 1.0 3.0 0.00 0.00 0.00 49 1010.4
20260831204428 78 9 1.0 4.0 0.00 0.00 0.00 50 1010.4
20260831203921 78 26 1.0 3.0 0.00 0.00 0.00 52 1010.5
20260831203415 78 26 1.0 3.0 0.00 0.00 0.00 51 1010.5
20260831202911 77 331 1.0 3.0 0.00 0.00 0.00 52 1010.6
20260831202410 77 275 1.0 3.0 0.00 0.00 0.00 51 1010.6
20260831202406 77 275 1.0 3.0 0.00 0.00 0.00 53 1010.6
20260831201352 76 323 1.0 4.0 0.00 0.00 0.00 53 1010.6
20260831200846 76 350 1.0 4.0 0.00 0.00 0.00 52 1010.7
20260831200343 76 259 1.0 4.0 0.00 0.00 0.00 54 1010.8
20260831200335 76 15 1.0 4.0 0.00 0.00 0.00 54 1010.7
20260831195328 75 306 1.0 5.0 0.00 0.00 0.00 54 1010.8
20260831194823 75 22 1.0 6.0 0.00 0.00 0.00 54 1011.0
20260831194317 75 19 1.0 3.0 0.00 0.00 0.00 55 1010.9
20260831193809 74 0 1.0 3.0 0.00 0.00 0.00 56 1011.1
20260831193304 74 190 1.0 3.0 0.00 0.00 0.00 57 1011.1
20260831192801 73 253 1.0 3.0 0.00 0.00 0.00 58 1011.1
20260831192753 73 218 1.0 3.0 0.00 0.00 0.00 57 1011.2
20260831192125 72 192 1.0 4.0 0.00 0.00 0.00 60 1011.4
20260831192017 73 301 1.0 3.0 0.00 0.00 0.00 58 1011.3
20260831190734 72 228 1.0 4.0 0.00 0.00 0.00 60 1011.4
20260831190235 71 286 1.0 4.0 0.00 0.00 0.00 60 1011.5
20260831185717 71 0 1.0 4.0 0.00 0.00 0.00 62 1011.5
20260831185204 71 198 2.0 5.0 0.00 0.00 0.00 63 1011.5
20260831184657 70 296 2.0 5.0 0.00 0.00 0.00 63 1011.5
20260831184152 70 315 2.0 5.0 0.00 0.00 0.00 64 1011.6
20260831183646 70 237 2.0 4.0 0.00 0.00 0.00 64 1011.6
20260831183139 69 194 2.0 4.0 0.00 0.00 0.00 64 1011.6
20260831183135 69 0 2.0 5.0 0.00 0.00 0.00 65 1011.8
20260831182134 69 198 2.0 5.0 0.00 0.00 0.00 66 1011.7
20260831181640 68 281 1.0 3.0 0.00 0.00 0.00 68 1011.7
20260831181633 68 166 2.0 5.0 0.00 0.00 0.00 67 1011.8
20260831180634 67 195 1.0 3.0 0.00 0.00 0.00 68 1011.8
20260831180134 67 252 1.0 4.0 0.00 0.00 0.00 69 1012.0
20260831175635 67 287 2.0 4.0 0.00 0.00 0.00 70 1012.0
20260831175132 66 5 2.0 4.0 0.00 0.00 0.00 69 1011.9
20260831174632 66 336 1.0 4.0 0.00 0.00 0.00 70 1011.9
20260831174132 66 291 1.0 4.0 0.00 0.00 0.00 70 1012.0
20260831173631 66 355 1.0 3.0 0.00 0.00 0.00 71 1012.0
20260831173133 65 31 1.0 4.0 0.00 0.00 0.00 71 1012.1
20260831172631 65 232 1.0 4.0 0.00 0.00 0.00 72 1012.1
20260831172135 64 197 1.0 4.0 0.00 0.00 0.00 74 1012.2
20260831172130 64 281 1.0 4.0 0.00 0.00 0.00 73 1012.2
20260831171129 64 350 1.0 3.0 0.00 0.00 0.00 74 1012.2
20260831171125 63 355 1.0 3.0 0.00 0.00 0.00 75 1012.2
20260831170123 63 94 1.0 5.0 0.00 0.00 0.00 76 1012.2
20260831165626 62 312 1.0 8.0 0.00 0.00 0.00 76 1012.2
20260831165123 62 304 2.0 8.0 0.00 0.00 0.00 77 1012.3
20260831164624 62 83 2.0 5.0 0.00 0.00 0.00 77 1012.3
20260831164123 61 66 1.0 5.0 0.00 0.00 0.00 78 1012.5
20260831163624 61 300 1.0 6.0 0.00 0.00 0.00 79 1012.5
20260831163355 61 262 1.0 6.0 0.00 0.00 0.00 80 1012.6
20260831162629 60 14 1.0 5.0 0.00 0.00 0.00 81 1012.8
20260831162625 60 40 1.0 4.0 0.00 0.00 0.00 80 1012.7
20260831161624 60 30 1.0 5.0 0.00 0.00 0.00 82 1012.6
20260831161124 59 36 1.0 4.0 0.00 0.00 0.00 84 1012.7
20260831160623 59 293 1.0 4.0 0.00 0.00 0.00 85 1012.6
20260831160124 58 60 0.0 3.0 0.00 0.00 0.00 87 1012.5
20260831155624 58 60 0.0 2.0 0.00 0.00 0.00 89 1012.5
20260831155123 57 68 0.0 2.0 0.00 0.00 0.00 90 1012.6
20260831154625 56 273 0.0 2.0 0.00 0.00 0.00 91 1012.7
20260831154123 56 273 0.0 2.0 0.00 0.00 0.00 91 1012.7
20260831153617 55 273 0.0 2.0 0.00 0.00 0.00 91 1012.8
20260831153112 55 273 0.0 2.0 0.00 0.00 0.00 91 1012.8
20260831153107 55 273 0.0 1.0 0.00 0.00 0.00 91 1012.7
20260831152059 55 273 0.0 1.0 0.00 0.00 0.00 91 1012.6
20260831151555 55 273 0.0 0.0 0.00 0.00 0.00 91 1012.8
20260831151046 55 273 0.0 0.0 0.00 0.00 0.00 91 1012.8
20260831151042 54 273 0.0 0.0 0.00 0.00 0.00 91 1012.7
20260831150036 54 273 0.0 0.0 0.00 0.00 0.00 91 1012.6
20260831145528 54 273 0.0 1.0 0.00 0.00 0.00 91 1012.7
20260831145023 54 273 0.0 1.0 0.00 0.00 0.00 91 1012.8
20260831144517 54 273 0.0 1.0 0.00 0.00 0.00 91 1012.7
20260831144013 54 273 0.0 1.0 0.00 0.00 0.00 91 1012.7
20260831143504 54 273 0.0 1.0 0.00 0.00 0.00 91 1012.7
20260831143001 54 273 0.0 2.0 0.00 0.00 0.00 91 1012.7
20260831142957 54 273 0.0 2.0 0.00 0.00 0.00 90 1012.6
20260831141947 54 273 0.0 1.0 0.00 0.00 0.00 90 1012.6
20260831141440 54 273 0.0 1.0 0.00 0.00 0.00 90 1012.7
20260831140935 54 273 0.0 1.0 0.00 0.00 0.00 90 1012.6
20260831140429 54 273 0.0 1.0 0.00 0.00 0.00 90 1012.6
20260831135923 54 273 0.0 1.0 0.00 0.00 0.00 90 1012.7
20260831135416 54 273 0.0 2.0 0.00 0.00 0.00 90 1012.7
20260831135412 54 273 0.0 2.0 0.00 0.00 0.00 90 1012.7
20260831134405 54 273 0.0 2.0 0.00 0.00 0.00 89 1012.7
20260831133859 54 273 0.0 2.0 0.00 0.00 0.00 89 1012.6
20260831133355 54 273 0.0 2.0 0.00 0.00 0.00 89 1012.8
20260831132848 54 273 0.0 2.0 0.00 0.00 0.00 89 1012.8
20260831132844 54 273 0.0 2.0 0.00 0.00 0.00 89 1012.8
20260831131835 54 273 0.0 2.0 0.00 0.00 0.00 89 1012.8
20260831131331 54 273 0.0 2.0 0.00 0.00 0.00 89 1012.8
20260831130823 55 273 0.0 2.0 0.00 0.00 0.00 89 1012.8
20260831130316 55 273 0.0 2.0 0.00 0.00 0.00 89 1012.8
20260831125811 55 270 0.0 1.0 0.00 0.00 0.00 89 1012.8
20260831125306 55 269 0.0 2.0 0.00 0.00 0.00 89 1013.0
20260831124759 55 270 0.0 2.0 0.00 0.00 0.00 89 1012.8
20260831124253 55 270 0.0 1.0 0.00 0.00 0.00 89 1012.8
20260831123746 55 270 0.0 1.0 0.00 0.00 0.00 89 1013.0
20260831123241 55 270 0.0 2.0 0.00 0.00 0.00 89 1013.0
20260831122735 55 270 0.0 2.0 0.00 0.00 0.00 89 1013.0
20260831122228 55 303 0.0 2.0 0.00 0.00 0.00 89 1013.0
20260831121723 55 302 0.0 2.0 0.00 0.00 0.00 89 1013.0
20260831121718 55 279 0.0 3.0 0.00 0.00 0.00 88 1013.1
20260831120711 55 277 0.0 3.0 0.00 0.00 0.00 88 1013.1
20260831120706 55 301 0.0 2.0 0.00 0.00 0.00 88 1013.0
20260831115659 55 301 0.0 1.0 0.00 0.00 0.00 88 1013.1
20260831115152 55 290 0.0 1.0 0.00 0.00 0.00 87 1013.1
20260831114647 55 290 0.0 1.0 0.00 0.00 0.00 87 1013.1
20260831114141 55 290 0.0 1.0 0.00 0.00 0.00 87 1013.2
20260831113634 55 290 0.0 1.0 0.00 0.00 0.00 87 1013.3
20260831113630 55 290 0.0 1.0 0.00 0.00 0.00 87 1013.3
20260831112623 55 290 0.0 1.0 0.00 0.00 0.00 87 1013.3
20260831112117 55 290 0.0 1.0 0.00 0.00 0.00 87 1013.3
20260831111944 55 290 0.0 1.0 0.00 0.00 0.00 87 1013.2
20260831111837 55 290 0.0 1.0 0.00 0.00 0.00 87 1013.3
20260831110600 55 290 0.0 2.0 0.00 0.00 0.00 87 1013.3
20260831110052 55 290 0.0 2.0 0.00 0.00 0.00 86 1013.4
20260831105547 55 289 0.0 3.0 0.00 0.00 0.00 86 1013.4
20260831105040 55 288 0.0 3.0 0.00 0.00 0.00 86 1013.4
20260831104535 56 323 0.0 2.0 0.00 0.00 0.00 85 1013.3
20260831104028 56 341 0.0 0.0 0.00 0.00 0.00 85 1013.4
20260831103522 56 341 0.0 2.0 0.00 0.00 0.00 85 1013.4
20260831103016 56 341 0.0 2.0 0.00 0.00 0.00 85 1013.4
20260831102511 56 5 0.0 1.0 0.00 0.00 0.00 85 1013.4
20260831102007 56 11 0.0 1.0 0.00 0.00 0.00 85 1013.5
20260831101511 56 5 0.0 2.0 0.00 0.00 0.00 84 1013.6
20260831101507 56 5 0.0 1.0 0.00 0.00 0.00 84 1013.6
20260831100506 56 5 0.0 3.0 0.00 0.00 0.00 84 1013.6
20260831100009 56 13 0.0 3.0 0.00 0.00 0.00 84 1013.6
20260831095506 56 21 0.0 0.0 0.00 0.00 0.00 83 1013.6
20260831095006 56 21 0.0 0.0 0.00 0.00 0.00 83 1013.8
20260831094506 56 21 0.0 0.0 0.00 0.00 0.00 83 1013.9
20260831094007 56 21 0.0 0.0 0.00 0.00 0.00 82 1013.9
20260831093507 56 21 0.0 0.0 0.00 0.00 0.00 82 1013.9
20260831093002 57 21 0.0 1.0 0.00 0.00 0.00 82 1014.0
20260831092502 57 21 0.0 1.0 0.00 0.00 0.00 82 1014.1
20260831092003 57 5 0.0 0.0 0.00 0.00 0.00 82 1014.2
20260831091503 57 5 0.0 0.0 0.00 0.00 0.00 82 1014.2
20260831091002 57 5 0.0 0.0 0.00 0.00 0.00 82 1014.3
20260831090503 57 5 0.0 1.0 0.00 0.00 0.00 81 1014.3
20260831090002 58 5 0.0 2.0 0.00 0.00 0.00 81 1014.3
20260831085502 58 5 0.0 2.0 0.00 0.00 0.00 81 1014.4
20260831085004 58 27 0.0 1.0 0.00 0.00 0.00 81 1014.5
20260831084458 58 27 0.0 1.0 0.00 0.00 0.00 81 1014.5
20260831083959 58 279 0.0 0.0 0.00 0.00 0.00 81 1014.6
20260831083501 58 279 0.0 1.0 0.00 0.00 0.00 80 1014.6
20260831082959 58 279 0.0 1.0 0.00 0.00 0.00 80 1014.8
20260831082457 58 278 0.0 1.0 0.00 0.00 0.00 80 1014.8
20260831081956 58 278 0.0 1.0 0.00 0.00 0.00 80 1014.8
20260831081452 58 278 0.0 1.0 0.00 0.00 0.00 80 1014.7
20260831080952 58 278 0.0 1.0 0.00 0.00 0.00 80 1014.9
20260831080452 58 301 0.0 2.0 0.00 0.00 0.00 80 1014.8
20260831075951 58 301 0.0 2.0 0.00 0.00 0.00 80 1014.8
20260831075448 58 304 0.0 1.0 0.00 0.00 0.00 79 1014.9
20260831074950 59 355 0.0 1.0 0.00 0.00 0.00 79 1015.0
20260831074946 58 294 0.0 0.0 0.00 0.00 0.00 79 1015.0
20260831073942 59 355 0.0 2.0 0.00 0.00 0.00 79 1015.0
20260831073440 59 355 0.0 2.0 0.00 0.00 0.00 78 1015.0
20260831072938 59 268 0.0 2.0 0.00 0.00 0.00 78 1015.0
20260831072439 59 265 0.0 1.0 0.00 0.00 0.00 78 1014.9
20260831071942 59 269 0.0 0.0 0.00 0.00 0.00 77 1015.0
20260831071938 59 269 0.0 0.0 0.00 0.00 0.00 77 1014.9
20260831070932 60 269 0.0 2.0 0.00 0.00 0.00 76 1015.1
20260831070426 60 269 0.0 2.0 0.00 0.00 0.00 76 1015.0
20260831065921 60 261 0.0 1.0 0.00 0.00 0.00 75 1015.1
20260831065415 60 350 0.0 1.0 0.00 0.00 0.00 75 1015.1
20260831064909 60 355 0.0 1.0 0.00 0.00 0.00 75 1015.1
20260831064403 60 5 0.0 3.0 0.00 0.00 0.00 75 1015.3
20260831063857 60 5 0.0 3.0 0.00 0.00 0.00 74 1015.3
20260831063722 61 14 0.0 2.0 0.00 0.00 0.00 74 1015.4
20260831063617 61 14 0.0 2.0 0.00 0.00 0.00 73 1015.5
20260831062338 61 14 0.0 2.0 0.00 0.00 0.00 73 1015.5
20260831062334 61 14 0.0 2.0 0.00 0.00 0.00 73 1015.5
20260831061327 61 282 0.0 2.0 0.00 0.00 0.00 72 1015.6
20260831061323 62 282 0.0 2.0 0.00 0.00 0.00 72 1015.7
20260831060315 62 275 0.0 3.0 0.00 0.00 0.00 72 1015.7
20260831055809 62 346 0.0 3.0 0.00 0.00 0.00 72 1015.8
20260831055306 62 5 0.0 5.0 0.00 0.00 0.00 71 1015.7
20260831054758 62 5 1.0 5.0 0.00 0.00 0.00 71 1015.5
20260831054251 62 355 0.0 3.0 0.00 0.00 0.00 70 1015.6
20260831053747 62 319 0.0 4.0 0.00 0.00 0.00 70 1015.8
20260831053239 63 340 1.0 4.0 0.00 0.00 0.00 70 1015.8
20260831052734 63 318 1.0 5.0 0.00 0.00 0.00 70 1015.8
20260831052730 63 346 1.0 5.0 0.00 0.00 0.00 70 1015.9
20260831051722 63 25 0.0 2.0 0.00 0.00 0.00 69 1015.9
20260831051216 63 67 1.0 6.0 0.00 0.00 0.00 69 1016.1
20260831050708 63 283 1.0 6.0 0.00 0.00 0.00 68 1016.2
20260831050704 64 318 1.0 3.0 0.00 0.00 0.00 68 1016.3
20260831045927 64 339 1.0 6.0 0.00 0.00 0.00 68 1016.2
20260831045704 64 339 1.0 6.0 0.00 0.00 0.00 68 1016.2
20260831045151 64 38 0.0 6.0 0.00 0.00 0.00 67 1016.2
20260831044647 64 346 0.0 3.0 0.00 0.00 0.00 67 1016.1